Location: Amsterdam
(30.7274°N, 84.4357°W)
Time: 19:23:07
(UTC+00:00)

Altair - Pass Details

Date: 10 August 2024
Orbit: 1501 x 1682 km, 47.2° (Epoch: 07 September)

Event Time Altitude Azimuth Distance (km) Brightness Sun altitude
Rises 22:42:39 0° 308° (NW) 4,765 11.1 20.5°
Reaches altitude 10° 22:46:03 10° 315° (NW) 3,754 10.5 19.7°
Maximum altitude 22:54:54 42° 24° (NNE) 2,055 8.3 17.9°
Drops below altitude 10° 23:03:29 10° 94° (E) 3,654 8.9 16.0°
Sets 23:06:44 0° 101° (E) 4,628 9.4 15.3°
